Content
SEND FEEDBACK

Daily
Averages
Monthly
Summary
Brazil

CUIABA, MATO GROSSO


Home > South America > Brazil > Mato Grosso
Elevation: 623 feet     Latitude: 15 38S     Longitude: 056 06W

WEATHER
 
SELECT A DAY
Number of Records: 165,999;   Date Range: 6/30/96 - 4/22/14
 
SHARE

PRINT THIS DATA

[ ← Previous Day ]
WEATHER ALMANAC - APRIL 6, 2013
[ Next Day → ]
[ °C ]   °F
Weather ElementAverageHighLow
Temperature80.9 °F90 °F (2:00 pm)75 °F (2:00 am)
Dewpoint71 °F73.4 °F (9:00 am)69.8 °F (2:00 am)
Humidity71.7 %89 % (1:00 am)46 % (2:00 pm)
Barometer29.89 in29.95 in (8:00 am)29.83 in (2:00 am)
Wind Speed8 mph17.3 mph (3:00 pm)
Weather ElementAverage
Visibility8 mi
Wind DirectionWSW (240 °)

Weather ElementTotal
Precipitation---
Cooling Degree Days17.5 (Base 65)
Growing Degree Days32.5 (Base 50)
Averaged from 27 records on April 6, 2013
WEATHER CONDITIONS BREAKOUT
WIND DIRECTION BREAKOUT
WEATHER BY HOUR - APRIL 6, 2013
[ °C ]   °F
Local TimeTemperatureDewpointHumidityBarometerVisibilityWind DirectionWind SpeedGust SpeedPrecipitationEventsConditions
1:00 AM75.2 °F71.6 °F89 %29.86 inNW (320°)8.1 mphClear
2:00 AM75.0 °F70.0 °F81 %29.83 in12.0 miNW (320°)8.1 mphPartly Cloudy
2:00 AM75.2 °F69.8 °F83 %29.86 inNW (320°)8.1 mphClear
3:00 AM75.2 °F69.8 °F83 %29.86 inNW (320°)6.9 mphClear
4:00 AM75.2 °F69.8 °F83 %29.86 inCalmClear
5:00 AM77.0 °F69.8 °F78 %29.86 inNNW (330°)5.8 mphClear
6:00 AM75.2 °F69.8 °F83 %29.89 inNNW (330°)6.9 mphClear
7:00 AM78.8 °F69.8 °F74 %29.92 inNorth (350°)10.4 mphClear
8:00 AM80.0 °F71.0 °F68 %29.92 in12.0 miNorth5.8 mphMostly Cloudy
8:00 AM80.6 °F71.6 °F74 %29.95 inNorth (360°)5.8 mphClear
9:00 AM84.2 °F73.4 °F70 %29.95 inNorth (350°)8.1 mphClear
10:00 AM86.0 °F71.6 °F62 %29.95 in6.2 miNW (310°)15.0 mphScattered Clouds
11:00 AM87.8 °F73.4 °F62 %29.95 in6.2 miNW (320°)15.0 mphScattered Clouds
12:00 PM89.6 °F73.4 °F59 %29.92 in6.2 miNorth (350°)10.4 mphScattered Clouds
1:00 PM89.6 °F71.6 °F55 %29.86 in6.2 miNW (320°)10.4 mphScattered Clouds
2:00 PM90.0 °F72.0 °F46 %29.85 in12.0 miNW (320°)9.2 mphPartly Cloudy
2:00 PM89.6 °F71.6 °F55 %29.86 in6.2 miNW (320°)9.2 mphPartly Cloudy
3:00 PM84.2 °F69.8 °F62 %29.83 in6.2 miNNW (330°)17.3 mphPartly Cloudy
4:00 PM84.2 °F69.8 °F62 %29.86 in6.2 miNNW (330°)9.2 mphPartly Cloudy
5:00 PM82.4 °F71.6 °F70 %29.83 in6.2 miENE (60°)4.6 mphPartly Cloudy
6:00 PM78.8 °F71.6 °F78 %29.83 inENE (70°)2.3 mphClear
7:00 PM78.8 °F71.6 °F78 %29.83 inNE (40°)4.6 mphClear
8:00 PM79.0 °F71.0 °F70 %29.86 in12.0 miNNE (30°)4.6 mph
8:00 PM78.8 °F71.6 °F78 %29.89 inNNE (30°)4.6 mphClear
9:00 PM78.8 °F71.6 °F78 %29.92 in6.2 miNorth (10°)5.8 mphPartly Cloudy
10:00 PM77.0 °F69.8 °F78 %29.95 inNW (320°)10.4 mphClear
11:00 PM77.0 °F69.8 °F78 %29.95 inNW (320°)9.2 mphClear
Hourly data recorded from SBCY, located 1.85 miles away from Cuiaba, Mato Grosso







STORIES FROM OUR PARTNERS